Time,TemperatureF,DewpointF,PressureIn,WindDirection,WindDirectionDegrees,WindSpeedMPH,WindSpeedGustMPH,Humidity,HourlyPrecipIn,Conditions,Clouds,dailyrainin,SoftwareType,DateUTC
2013-05-12 00:01:00,42.9,25.6,30.15,NNW,339,2.0,2.0,50,0.00,,CLR,0.00,VWS V14.01,2013-05-12 05:01:00,
2013-05-12 00:06:00,42.7,24.9,30.15,NNW,336,3.0,6.0,49,0.00,,CLR,0.00,VWS V14.01,2013-05-12 05:06:00,
2013-05-12 00:11:00,42.7,24.9,30.16,NNE,31,5.0,6.0,49,0.00,,CLR,0.00,VWS V14.01,2013-05-12 05:11:00,
2013-05-12 00:16:00,42.7,24.9,30.16,NW,311,2.0,6.0,49,0.00,,CLR,0.00,VWS V14.01,2013-05-12 05:16:00,
2013-05-12 00:21:00,42.5,24.7,30.16,NNE,16,2.0,6.0,49,0.00,,CLR,0.00,VWS V14.01,2013-05-12 05:21:00,
2013-05-12 00:26:00,42.5,25.2,30.16,NNW,331,1.0,10.0,50,0.00,,CLR,0.00,VWS V14.01,2013-05-12 05:26:00,
2013-05-12 00:31:00,42.4,25.1,30.16,NW,321,5.0,7.0,50,0.00,,CLR,0.00,VWS V14.01,2013-05-12 05:31:00,
2013-05-12 00:36:00,42.2,24.4,30.16,NNE,13,4.0,7.0,49,0.00,,CLR,0.00,VWS V14.01,2013-05-12 05:36:00,
2013-05-12 00:41:00,42.1,25.3,30.16,NW,321,2.0,7.0,51,0.00,,CLR,0.00,VWS V14.01,2013-05-12 05:41:00,
2013-05-12 00:46:00,42.0,24.7,30.16,North,360,4.0,7.0,50,0.00,,CLR,0.00,VWS V14.01,2013-05-12 05:46:00,
2013-05-12 00:51:00,41.9,25.1,30.16,NW,316,3.0,7.0,51,0.00,,CLR,0.00,VWS V14.01,2013-05-12 05:51:00,
2013-05-12 00:56:00,41.8,25.5,30.16,WSW,246,1.0,7.0,52,0.00,,CLR,0.00,VWS V14.01,2013-05-12 05:56:00,
2013-05-12 01:01:00,41.7,25.4,30.17,NNE,15,7.0,7.0,52,0.00,,CLR,0.00,VWS V14.01,2013-05-12 06:01:00,
2013-05-12 01:06:00,41.8,25.0,30.17,North,6,3.0,7.0,51,0.00,,CLR,0.00,VWS V14.01,2013-05-12 06:06:00,
2013-05-12 01:11:00,41.9,25.1,30.17,NW,315,4.0,8.0,51,0.00,,CLR,0.00,VWS V14.01,2013-05-12 06:11:00,
2013-05-12 01:16:00,41.8,25.5,30.17,North,351,6.0,8.0,52,0.00,,CLR,0.00,VWS V14.01,2013-05-12 06:16:00,
2013-05-12 01:21:00,41.7,25.4,30.16,North,1,2.0,8.0,52,0.00,,CLR,0.00,VWS V14.01,2013-05-12 06:21:00,
2013-05-12 01:26:00,41.6,25.3,30.17,NNW,346,2.0,8.0,52,0.00,,CLR,0.00,VWS V14.01,2013-05-12 06:26:00,
2013-05-12 01:31:00,41.5,25.2,30.17,NNE,25,4.0,4.0,52,0.00,,CLR,0.00,VWS V14.01,2013-05-12 06:31:00,
2013-05-12 01:36:00,41.4,25.1,30.16,NNE,26,5.0,8.0,52,0.00,,CLR,0.00,VWS V14.01,2013-05-12 06:36:00,
2013-05-12 01:41:00,41.4,25.1,30.16,North,356,6.0,10.0,52,0.00,,CLR,0.00,VWS V14.01,2013-05-12 06:41:00,
2013-05-12 01:46:00,41.3,25.5,30.16,NNW,330,3.0,10.0,53,0.00,,CLR,0.00,VWS V14.01,2013-05-12 06:46:00,
2013-05-12 01:51:00,41.2,24.9,30.16,North,353,3.0,10.0,52,0.00,,CLR,0.00,VWS V14.01,2013-05-12 06:51:00,
2013-05-12 01:56:00,41.0,25.2,30.17,North,353,7.0,10.0,53,0.00,,CLR,0.00,VWS V14.01,2013-05-12 06:56:00,
2013-05-12 02:01:00,41.0,25.2,30.17,North,8,3.0,3.0,53,0.00,,CLR,0.00,VWS V14.01,2013-05-12 07:01:00,
2013-05-12 02:06:00,40.8,25.5,30.17,North,5,5.0,8.0,54,0.00,,CLR,0.00,VWS V14.01,2013-05-12 07:06:00,
2013-05-12 02:11:00,40.7,24.9,30.17,NW,315,4.0,10.0,53,0.00,,CLR,0.00,VWS V14.01,2013-05-12 07:11:00,
2013-05-12 02:16:00,40.7,24.9,30.17,North,7,4.0,10.0,53,0.00,,CLR,0.00,VWS V14.01,2013-05-12 07:16:00,
2013-05-12 02:21:00,40.6,25.3,30.17,NNW,332,3.0,10.0,54,0.00,,CLR,0.00,VWS V14.01,2013-05-12 07:21:00,
2013-05-12 02:26:00,40.4,25.1,30.17,NNW,347,2.0,10.0,54,0.00,,CLR,0.00,VWS V14.01,2013-05-12 07:26:00,
2013-05-12 02:31:00,40.3,25.0,30.17,NNE,18,8.0,8.0,54,0.00,,CLR,0.00,VWS V14.01,2013-05-12 07:31:00,
2013-05-12 02:36:00,40.2,25.3,30.17,NNE,29,5.0,9.0,55,0.00,,CLR,0.00,VWS V14.01,2013-05-12 07:36:00,
2013-05-12 02:41:00,40.1,25.2,30.17,NNW,346,5.0,12.0,55,0.00,,CLR,0.00,VWS V14.01,2013-05-12 07:41:00,
2013-05-12 02:46:00,40.1,25.2,30.17,North,354,4.0,12.0,55,0.00,,CLR,0.00,VWS V14.01,2013-05-12 07:46:00,
2013-05-12 02:51:00,40.0,25.1,30.17,North,350,4.0,12.0,55,0.00,,CLR,0.00,VWS V14.01,2013-05-12 07:51:00,
2013-05-12 02:56:00,39.8,25.0,30.17,North,6,7.0,12.0,55,0.00,,CLR,0.00,VWS V14.01,2013-05-12 07:56:00,
2013-05-12 03:01:00,39.5,25.1,30.17,North,359,3.0,3.0,56,0.00,,CLR,0.00,VWS V14.01,2013-05-12 08:01:00,
2013-05-12 03:06:00,39.3,25.4,30.17,North,5,1.0,7.0,57,0.00,,CLR,0.00,VWS V14.01,2013-05-12 08:06:00,
2013-05-12 03:11:00,39.1,25.2,30.17,North,5,3.0,7.0,57,0.00,,CLR,0.00,VWS V14.01,2013-05-12 08:11:00,
2013-05-12 03:16:00,38.9,25.4,30.17,NNE,15,2.0,7.0,58,0.00,,CLR,0.00,VWS V14.01,2013-05-12 08:16:00,
2013-05-12 03:21:00,38.7,25.2,30.17,NW,316,1.0,7.0,58,0.00,,CLR,0.00,VWS V14.01,2013-05-12 08:21:00,
2013-05-12 03:26:00,38.6,25.5,30.17,NNE,29,4.0,7.0,59,0.00,,CLR,0.00,VWS V14.01,2013-05-12 08:26:00,
2013-05-12 03:31:00,38.5,25.4,30.17,NNW,340,2.0,4.0,59,0.00,,CLR,0.00,VWS V14.01,2013-05-12 08:31:00,
2013-05-12 03:36:00,38.3,24.8,30.17,NNW,341,1.0,5.0,58,0.00,,CLR,0.00,VWS V14.01,2013-05-12 08:36:00,
2013-05-12 03:41:00,38.3,24.8,30.18,North,11,4.0,6.0,58,0.00,,CLR,0.00,VWS V14.01,2013-05-12 08:41:00,
2013-05-12 03:46:00,38.2,25.1,30.18,NNE,15,5.0,7.0,59,0.00,,CLR,0.00,VWS V14.01,2013-05-12 08:46:00,
2013-05-12 03:51:00,38.1,25.5,30.18,NNE,16,2.0,7.0,60,0.00,,CLR,0.00,VWS V14.01,2013-05-12 08:51:00,
2013-05-12 03:56:00,37.9,25.7,30.18,North,349,2.0,7.0,61,0.00,,CLR,0.00,VWS V14.01,2013-05-12 08:56:00,
2013-05-12 04:01:00,37.8,25.6,30.18,NNW,338,2.0,2.0,61,0.00,,CLR,0.00,VWS V14.01,2013-05-12 09:01:00,
2013-05-12 04:06:00,37.7,25.5,30.18,NNE,25,3.0,6.0,61,0.00,,CLR,0.00,VWS V14.01,2013-05-12 09:06:00,
2013-05-12 04:11:00,37.7,25.5,30.17,North,350,2.0,8.0,61,0.00,,CLR,0.00,VWS V14.01,2013-05-12 09:11:00,
2013-05-12 04:16:00,37.8,25.2,30.17,NNW,347,2.0,8.0,60,0.00,,CLR,0.00,VWS V14.01,2013-05-12 09:16:00,
2013-05-12 04:21:00,37.8,25.6,30.17,NNE,19,4.0,8.0,61,0.00,,CLR,0.00,VWS V14.01,2013-05-12 09:21:00,
2013-05-12 04:26:00,37.7,25.9,30.17,North,6,2.0,8.0,62,0.00,,CLR,0.00,VWS V14.01,2013-05-12 09:26:00,
2013-05-12 04:31:00,37.6,25.8,30.18,NNE,29,0.0,1.0,62,0.00,,CLR,0.00,VWS V14.01,2013-05-12 09:31:00,
2013-05-12 04:36:00,37.5,26.1,30.18,NNW,348,1.0,2.0,63,0.00,,CLR,0.00,VWS V14.01,2013-05-12 09:36:00,
2013-05-12 04:41:00,37.4,26.0,30.17,NNW,341,1.0,4.0,63,0.00,,CLR,0.00,VWS V14.01,2013-05-12 09:41:00,
2013-05-12 04:46:00,37.3,25.9,30.17,NW,316,1.0,4.0,63,0.00,,CLR,0.00,VWS V14.01,2013-05-12 09:46:00,
2013-05-12 04:51:00,37.3,26.3,30.18,NW,318,2.0,4.0,64,0.00,,CLR,0.00,VWS V14.01,2013-05-12 09:51:00,
2013-05-12 04:56:00,37.4,26.0,30.18,NW,315,2.0,4.0,63,0.00,,CLR,0.00,VWS V14.01,2013-05-12 09:56:00,
2013-05-12 05:01:00,37.3,26.3,30.18,NW,315,1.0,1.0,64,0.00,,CLR,0.00,VWS V14.01,2013-05-12 10:01:00,
2013-05-12 05:06:00,37.1,26.4,30.18,WNW,303,0.0,3.0,65,0.00,,CLR,0.00,VWS V14.01,2013-05-12 10:06:00,
2013-05-12 05:11:00,36.8,26.1,30.18,NW,311,0.0,3.0,65,0.00,,CLR,0.00,VWS V14.01,2013-05-12 10:11:00,
2013-05-12 05:16:00,36.6,26.3,30.18,NW,308,1.0,3.0,66,0.00,,CLR,0.00,VWS V14.01,2013-05-12 10:16:00,
2013-05-12 05:20:00,36.5,26.2,30.18,NNW,347,2.0,3.0,66,0.00,,CLR,0.00,VWS V14.01,2013-05-12 10:20:00,
2013-05-12 05:25:00,36.4,25.8,30.18,NW,315,2.0,4.0,65,0.00,,CLR,0.00,VWS V14.01,2013-05-12 10:25:00,
2013-05-12 05:30:00,36.4,26.1,30.18,WNW,301,2.0,4.0,66,0.00,,CLR,0.00,VWS V14.01,2013-05-12 10:30:00,
2013-05-12 05:35:00,36.3,26.0,30.19,WNW,298,1.0,3.0,66,0.00,,CLR,0.00,VWS V14.01,2013-05-12 10:35:00,
2013-05-12 05:40:00,36.1,26.2,30.19,NW,317,0.0,3.0,67,0.00,,CLR,0.00,VWS V14.01,2013-05-12 10:40:00,
2013-05-12 05:45:00,36.0,26.1,30.19,North,352,1.0,3.0,67,0.00,,CLR,0.00,VWS V14.01,2013-05-12 10:45:00,
2013-05-12 05:50:00,35.8,26.3,30.19,NNW,328,1.0,4.0,68,0.00,,CLR,0.00,VWS V14.01,2013-05-12 10:50:00,
2013-05-12 05:55:00,35.6,26.1,30.19,NNE,20,3.0,4.0,68,0.00,,CLR,0.00,VWS V14.01,2013-05-12 10:55:00,
2013-05-12 06:00:00,35.7,26.2,30.19,NNW,340,0.0,4.0,68,0.00,,CLR,0.00,VWS V14.01,2013-05-12 11:00:00,
2013-05-12 06:05:00,35.6,26.1,30.19,WNW,284,4.0,5.0,68,0.00,,CLR,0.00,VWS V14.01,2013-05-12 11:05:00,
2013-05-12 06:10:00,35.6,26.1,30.19,NNE,31,1.0,5.0,68,0.00,,CLR,0.00,VWS V14.01,2013-05-12 11:10:00,
2013-05-12 06:15:00,35.7,26.2,30.19,NNW,334,1.0,5.0,68,0.00,,CLR,0.00,VWS V14.01,2013-05-12 11:15:00,
2013-05-12 06:20:00,35.7,26.2,30.19,WNW,302,1.0,5.0,68,0.00,,CLR,0.00,VWS V14.01,2013-05-12 11:20:00,
2013-05-12 06:25:00,35.7,25.8,30.19,North,356,0.0,5.0,67,0.00,,CLR,0.00,VWS V14.01,2013-05-12 11:25:00,
2013-05-12 06:30:00,35.8,26.3,30.19,North,5,5.0,5.0,68,0.00,,CLR,0.00,VWS V14.01,2013-05-12 11:30:00,
2013-05-12 06:35:00,35.9,26.4,30.19,North,354,3.0,6.0,68,0.00,,CLR,0.00,VWS V14.01,2013-05-12 11:35:00,
2013-05-12 06:40:00,36.0,26.1,30.19,NNE,13,0.0,6.0,67,0.00,,CLR,0.00,VWS V14.01,2013-05-12 11:40:00,
2013-05-12 06:45:00,36.1,26.2,30.19,NNE,19,2.0,6.0,67,0.00,,CLR,0.00,VWS V14.01,2013-05-12 11:45:00,
2013-05-12 06:50:00,36.4,26.5,30.19,NW,321,0.0,7.0,67,0.00,,CLR,0.00,VWS V14.01,2013-05-12 11:50:00,
2013-05-12 06:55:00,36.6,26.3,30.19,NNE,33,2.0,7.0,66,0.00,,CLR,0.00,VWS V14.01,2013-05-12 11:55:00,
2013-05-12 07:00:00,36.8,26.5,30.20,North,353,3.0,7.0,66,0.00,,CLR,0.00,VWS V14.01,2013-05-12 12:00:00,
2013-05-12 07:05:00,36.9,26.6,30.20,North,9,1.0,6.0,66,0.00,,CLR,0.00,VWS V14.01,2013-05-12 12:05:00,
2013-05-12 07:10:00,37.1,26.8,30.20,North,6,3.0,6.0,66,0.00,,CLR,0.00,VWS V14.01,2013-05-12 12:10:00,
2013-05-12 07:15:00,37.4,26.4,30.20,NNW,332,1.0,7.0,64,0.00,,CLR,0.00,VWS V14.01,2013-05-12 12:15:00,
2013-05-12 07:20:00,37.6,26.9,30.20,North,11,4.0,7.0,65,0.00,,CLR,0.00,VWS V14.01,2013-05-12 12:20:00,
2013-05-12 07:25:00,37.7,26.6,30.20,NNW,335,4.0,7.0,64,0.00,,CLR,0.00,VWS V14.01,2013-05-12 12:25:00,
2013-05-12 07:30:00,37.9,26.5,30.20,North,354,4.0,9.0,63,0.00,,CLR,0.00,VWS V14.01,2013-05-12 12:30:00,
2013-05-12 07:35:00,38.1,27.0,30.21,NNW,328,4.0,6.0,64,0.00,,CLR,0.00,VWS V14.01,2013-05-12 12:35:00,
2013-05-12 07:40:00,38.5,27.4,30.20,NNW,331,3.0,8.0,64,0.00,,CLR,0.00,VWS V14.01,2013-05-12 12:40:00,
2013-05-12 07:45:00,38.8,27.3,30.21,North,4,4.0,8.0,63,0.00,,CLR,0.00,VWS V14.01,2013-05-12 12:45:00,
2013-05-12 07:50:00,39.2,27.7,30.21,NNW,340,3.0,8.0,63,0.00,,CLR,0.00,VWS V14.01,2013-05-12 12:50:00,
2013-05-12 07:55:00,39.5,27.6,30.21,NNE,21,2.0,8.0,62,0.00,,CLR,0.00,VWS V14.01,2013-05-12 12:55:00,
2013-05-12 08:00:00,39.7,27.8,30.21,NNE,18,2.0,8.0,62,0.00,,CLR,0.00,VWS V14.01,2013-05-12 13:00:00,
2013-05-12 08:05:00,40.1,27.8,30.21,NNW,338,4.0,5.0,61,0.00,,CLR,0.00,VWS V14.01,2013-05-12 13:05:00,
2013-05-12 08:10:00,40.3,27.5,30.21,North,6,4.0,8.0,60,0.00,,CLR,0.00,VWS V14.01,2013-05-12 13:10:00,
2013-05-12 08:15:00,40.6,28.2,30.21,North,359,6.0,8.0,61,0.00,,CLR,0.00,VWS V14.01,2013-05-12 13:15:00,
2013-05-12 08:20:00,40.8,28.4,30.21,NNE,26,4.0,8.0,61,0.00,,CLR,0.00,VWS V14.01,2013-05-12 13:20:00,
2013-05-12 08:25:00,41.2,29.2,30.21,NW,318,1.0,8.0,62,0.00,,CLR,0.00,VWS V14.01,2013-05-12 13:25:00,
2013-05-12 08:30:00,41.6,27.9,30.22,NE,36,3.0,8.0,58,0.00,,CLR,0.00,VWS V14.01,2013-05-12 13:30:00,
2013-05-12 08:35:00,41.9,27.4,30.22,WNW,301,2.0,8.0,56,0.00,,CLR,0.00,VWS V14.01,2013-05-12 13:35:00,
2013-05-12 08:40:00,42.2,27.2,30.22,North,4,5.0,10.0,55,0.00,,CLR,0.00,VWS V14.01,2013-05-12 13:40:00,
2013-05-12 08:45:00,42.4,27.4,30.22,NNW,331,4.0,10.0,55,0.00,,CLR,0.00,VWS V14.01,2013-05-12 13:45:00,
2013-05-12 08:50:00,42.9,27.0,30.22,North,6,5.0,10.0,53,0.00,,CLR,0.00,VWS V14.01,2013-05-12 13:50:00,
2013-05-12 08:55:00,43.2,26.8,30.22,NE,43,1.0,10.0,52,0.00,,CLR,0.00,VWS V14.01,2013-05-12 13:55:00,
2013-05-12 09:00:00,43.3,25.9,30.22,North,359,6.0,10.0,50,0.00,,CLR,0.00,VWS V14.01,2013-05-12 14:00:00,
2013-05-12 09:05:00,43.4,26.5,30.22,NE,36,4.0,11.0,51,0.00,,CLR,0.00,VWS V14.01,2013-05-12 14:05:00,
2013-05-12 09:10:00,43.7,26.8,30.22,NNW,336,6.0,11.0,51,0.00,,CLR,0.00,VWS V14.01,2013-05-12 14:10:00,
2013-05-12 09:15:00,44.0,26.1,30.22,NE,41,4.0,11.0,49,0.00,,CLR,0.00,VWS V14.01,2013-05-12 14:15:00,
2013-05-12 09:20:00,43.9,26.0,30.22,NNW,341,7.0,11.0,49,0.00,,CLR,0.00,VWS V14.01,2013-05-12 14:20:00,
2013-05-12 09:25:00,44.5,26.0,30.22,North,8,7.0,11.0,48,0.00,,CLR,0.00,VWS V14.01,2013-05-12 14:25:00,
2013-05-12 09:30:00,44.7,26.2,30.22,NNE,29,5.0,11.0,48,0.00,,CLR,0.00,VWS V14.01,2013-05-12 14:30:00,
2013-05-12 09:35:00,44.9,27.4,30.22,North,351,1.0,11.0,50,0.00,,CLR,0.00,VWS V14.01,2013-05-12 14:35:00,
2013-05-12 09:40:00,45.1,27.1,30.22,North,351,6.0,11.0,49,0.00,,CLR,0.00,VWS V14.01,2013-05-12 14:40:00,
2013-05-12 09:45:00,45.3,27.8,30.22,NNE,13,8.0,11.0,50,0.00,,CLR,0.00,VWS V14.01,2013-05-12 14:45:00,
2013-05-12 09:50:00,45.6,27.6,30.22,North,6,5.0,11.0,49,0.00,,CLR,0.00,VWS V14.01,2013-05-12 14:50:00,
2013-05-12 09:55:00,46.0,27.4,30.22,North,356,5.0,11.0,48,0.00,,CLR,0.00,VWS V14.01,2013-05-12 14:55:00,
2013-05-12 10:00:00,46.3,28.2,30.22,NNW,337,0.0,11.0,49,0.00,,CLR,0.00,VWS V14.01,2013-05-12 15:00:00,
2013-05-12 10:05:00,46.5,26.9,30.22,NNE,23,7.0,10.0,46,0.00,,CLR,0.00,VWS V14.01,2013-05-12 15:05:00,
2013-05-12 10:10:00,46.4,26.8,30.22,NNE,15,6.0,11.0,46,0.00,,CLR,0.00,VWS V14.01,2013-05-12 15:10:00,
2013-05-12 10:15:00,46.3,26.7,30.21,NW,305,7.0,11.0,46,0.00,,CLR,0.00,VWS V14.01,2013-05-12 15:15:00,
2013-05-12 10:20:00,46.3,27.2,30.21,NNE,30,6.0,11.0,47,0.00,,CLR,0.00,VWS V14.01,2013-05-12 15:20:00,
2013-05-12 10:25:00,46.5,28.4,30.21,NE,41,1.0,11.0,49,0.00,,CLR,0.00,VWS V14.01,2013-05-12 15:25:00,
2013-05-12 10:30:00,47.0,27.8,30.21,NNE,13,4.0,11.0,47,0.00,,CLR,0.00,VWS V14.01,2013-05-12 15:30:00,
2013-05-12 10:35:00,46.9,25.6,30.21,NE,44,2.0,15.0,43,0.00,,CLR,0.00,VWS V14.01,2013-05-12 15:35:00,
2013-05-12 10:40:00,47.3,26.5,30.21,North,354,7.0,15.0,44,0.00,,CLR,0.00,VWS V14.01,2013-05-12 15:40:00,
2013-05-12 10:45:00,47.4,27.7,30.21,NNE,18,3.0,15.0,46,0.00,,CLR,0.00,VWS V14.01,2013-05-12 15:45:00,
2013-05-12 10:50:00,47.6,27.3,30.21,NNE,22,5.0,15.0,45,0.00,,CLR,0.00,VWS V14.01,2013-05-12 15:50:00,
2013-05-12 10:55:00,47.7,26.3,30.21,NNW,335,4.0,15.0,43,0.00,,CLR,0.00,VWS V14.01,2013-05-12 15:55:00,
2013-05-12 11:00:00,47.7,28.0,30.21,NNE,18,3.0,15.0,46,0.00,,CLR,0.00,VWS V14.01,2013-05-12 16:00:00,
2013-05-12 11:05:00,48.1,26.7,30.21,North,11,3.0,9.0,43,0.00,,CLR,0.00,VWS V14.01,2013-05-12 16:05:00,
2013-05-12 11:10:00,48.4,28.0,30.21,WNW,297,5.0,9.0,45,0.00,,CLR,0.00,VWS V14.01,2013-05-12 16:10:00,
2013-05-12 11:15:00,48.6,28.2,30.21,NNE,12,5.0,9.0,45,0.00,,CLR,0.00,VWS V14.01,2013-05-12 16:15:00,
2013-05-12 11:20:00,48.7,27.2,30.21,North,7,4.0,10.0,43,0.00,,CLR,0.00,VWS V14.01,2013-05-12 16:20:00,
2013-05-12 11:25:00,48.9,26.8,30.21,NE,43,5.0,10.0,42,0.00,,CLR,0.00,VWS V14.01,2013-05-12 16:25:00,
2013-05-12 11:30:00,48.9,26.2,30.21,NNE,26,5.0,12.0,41,0.00,,CLR,0.00,VWS V14.01,2013-05-12 16:30:00,
2013-05-12 11:35:00,49.0,25.1,30.21,NNE,26,7.0,11.0,39,0.00,,CLR,0.00,VWS V14.01,2013-05-12 16:35:00,
2013-05-12 11:40:00,49.2,28.8,30.21,NNW,329,4.0,11.0,45,0.00,,CLR,0.00,VWS V14.01,2013-05-12 16:40:00,
2013-05-12 11:45:00,49.6,28.0,30.21,North,11,4.0,11.0,43,0.00,,CLR,0.00,VWS V14.01,2013-05-12 16:45:00,
2013-05-12 11:50:00,49.8,27.1,30.21,NNE,16,6.0,11.0,41,0.00,,CLR,0.00,VWS V14.01,2013-05-12 16:50:00,
2013-05-12 11:55:00,50.0,28.4,30.21,WNW,295,4.0,11.0,43,0.00,,CLR,0.00,VWS V14.01,2013-05-12 16:55:00,
2013-05-12 12:00:00,50.4,29.3,30.21,NNW,330,5.0,11.0,44,0.00,,CLR,0.00,VWS V14.01,2013-05-12 17:00:00,
2013-05-12 12:05:00,50.7,30.7,30.21,WNW,302,5.0,9.0,46,0.00,,CLR,0.00,VWS V14.01,2013-05-12 17:05:00,
2013-05-12 12:10:00,50.7,26.7,30.21,NNE,15,9.0,9.0,39,0.00,,CLR,0.00,VWS V14.01,2013-05-12 17:10:00,
2013-05-12 12:15:00,50.5,26.5,30.21,NW,323,4.0,9.0,39,0.00,,CLR,0.00,VWS V14.01,2013-05-12 17:15:00,
2013-05-12 12:20:00,50.5,24.6,30.20,WNW,300,6.0,10.0,36,0.00,,CLR,0.00,VWS V14.01,2013-05-12 17:20:00,
2013-05-12 12:25:00,50.7,26.0,30.20,NW,316,5.0,11.0,38,0.00,,CLR,0.00,VWS V14.01,2013-05-12 17:25:00,
2013-05-12 12:30:00,50.5,24.6,30.20,North,5,1.0,12.0,36,0.00,,CLR,0.00,VWS V14.01,2013-05-12 17:30:00,
2013-05-12 12:35:00,51.1,25.8,30.20,West,270,8.0,10.0,37,0.00,,CLR,0.00,VWS V14.01,2013-05-12 17:35:00,
2013-05-12 12:40:00,50.8,25.5,30.20,WNW,286,7.0,10.0,37,0.00,,CLR,0.00,VWS V14.01,2013-05-12 17:40:00,
2013-05-12 12:45:00,51.1,25.1,30.20,NNW,341,0.0,10.0,36,0.00,,CLR,0.00,VWS V14.01,2013-05-12 17:45:00,
2013-05-12 12:50:00,51.4,25.4,30.19,North,6,4.0,10.0,36,0.00,,CLR,0.00,VWS V14.01,2013-05-12 17:50:00,
2013-05-12 12:55:00,52.3,29.9,30.19,WNW,301,5.0,10.0,42,0.00,,CLR,0.00,VWS V14.01,2013-05-12 17:55:00,
2013-05-12 13:00:00,52.2,25.4,30.18,North,8,3.0,10.0,35,0.00,,CLR,0.00,VWS V14.01,2013-05-12 18:00:00,
2013-05-12 13:05:00,52.2,27.4,30.18,NW,316,4.0,7.0,38,0.00,,CLR,0.00,VWS V14.01,2013-05-12 18:05:00,
2013-05-12 13:10:00,52.4,27.6,30.18,NNW,328,4.0,7.0,38,0.00,,CLR,0.00,VWS V14.01,2013-05-12 18:10:00,
2013-05-12 13:15:00,52.7,26.5,30.18,WNW,288,5.0,9.0,36,0.00,,CLR,0.00,VWS V14.01,2013-05-12 18:15:00,
2013-05-12 13:20:00,52.5,26.3,30.18,West,264,4.0,10.0,36,0.00,,CLR,0.00,VWS V14.01,2013-05-12 18:20:00,
2013-05-12 13:25:00,52.6,26.4,30.18,WSW,257,4.0,10.0,36,0.00,,CLR,0.00,VWS V14.01,2013-05-12 18:25:00,
2013-05-12 13:30:00,52.5,25.0,30.18,SW,235,3.0,10.0,34,0.00,,CLR,0.00,VWS V14.01,2013-05-12 18:30:00,
2013-05-12 13:35:00,52.5,25.0,30.17,NNW,339,3.0,7.0,34,0.00,,CLR,0.00,VWS V14.01,2013-05-12 18:35:00,
2013-05-12 13:40:00,52.8,23.8,30.17,WNW,300,3.0,8.0,32,0.00,,CLR,0.00,VWS V14.01,2013-05-12 18:40:00,
2013-05-12 13:45:00,53.1,27.5,30.17,North,356,1.0,10.0,37,0.00,,CLR,0.00,VWS V14.01,2013-05-12 18:45:00,
2013-05-12 13:50:00,53.9,26.9,30.17,NW,311,3.0,10.0,35,0.00,,CLR,0.00,VWS V14.01,2013-05-12 18:50:00,
2013-05-12 13:55:00,53.8,23.1,30.17,NNW,328,3.0,10.0,30,0.00,,CLR,0.00,VWS V14.01,2013-05-12 18:55:00,
2013-05-12 14:00:00,53.8,25.4,30.17,NW,304,5.0,10.0,33,0.00,,CLR,0.00,VWS V14.01,2013-05-12 19:00:00,
2013-05-12 14:05:00,54.2,28.5,30.16,North,351,4.0,14.0,37,0.00,,CLR,0.00,VWS V14.01,2013-05-12 19:05:00,
2013-05-12 14:10:00,54.3,24.3,30.16,NNW,339,3.0,14.0,31,0.00,,CLR,0.00,VWS V14.01,2013-05-12 19:10:00,
2013-05-12 14:15:00,54.4,24.4,30.16,WNW,288,3.0,14.0,31,0.00,,CLR,0.00,VWS V14.01,2013-05-12 19:15:00,
2013-05-12 14:20:00,54.4,22.8,30.15,West,264,6.0,14.0,29,0.00,,CLR,0.00,VWS V14.01,2013-05-12 19:20:00,
2013-05-12 14:25:00,54.3,23.5,30.15,WNW,290,5.0,14.0,30,0.00,,CLR,0.00,VWS V14.01,2013-05-12 19:25:00,
2013-05-12 14:30:00,54.9,26.4,30.15,NNW,333,6.0,14.0,33,0.00,,CLR,0.00,VWS V14.01,2013-05-12 19:30:00,
2013-05-12 14:35:00,55.3,26.7,30.15,NNW,344,8.0,8.0,33,0.00,,CLR,0.00,VWS V14.01,2013-05-12 19:35:00,
2013-05-12 14:40:00,55.2,26.6,30.15,NW,321,3.0,14.0,33,0.00,,CLR,0.00,VWS V14.01,2013-05-12 19:40:00,
2013-05-12 14:45:00,55.5,24.6,30.15,WNW,291,2.0,14.0,30,0.00,,CLR,0.00,VWS V14.01,2013-05-12 19:45:00,
2013-05-12 14:50:00,55.9,26.5,30.15,NNE,20,7.0,14.0,32,0.00,,CLR,0.00,VWS V14.01,2013-05-12 19:50:00,
2013-05-12 14:55:00,55.5,23.0,30.15,NNE,26,6.0,14.0,28,0.00,,CLR,0.00,VWS V14.01,2013-05-12 19:55:00,
2013-05-12 15:00:00,55.7,25.5,30.15,NNE,18,3.0,14.0,31,0.00,,CLR,0.00,VWS V14.01,2013-05-12 20:00:00,
2013-05-12 15:05:00,55.8,24.9,30.15,WNW,298,3.0,6.0,30,0.00,,CLR,0.00,VWS V14.01,2013-05-12 20:05:00,
2013-05-12 15:10:00,56.1,25.1,30.15,NW,321,4.0,8.0,30,0.00,,CLR,0.00,VWS V14.01,2013-05-12 20:10:00,
2013-05-12 15:15:00,56.1,24.3,30.14,WNW,299,4.0,8.0,29,0.00,,CLR,0.00,VWS V14.01,2013-05-12 20:15:00,
2013-05-12 15:20:00,56.1,22.6,30.14,NW,314,4.0,11.0,27,0.00,,CLR,0.00,VWS V14.01,2013-05-12 20:20:00,
2013-05-12 15:25:00,56.3,24.5,30.14,NW,321,6.0,11.0,29,0.00,,CLR,0.00,VWS V14.01,2013-05-12 20:25:00,
2013-05-12 15:30:00,56.5,23.8,30.14,WNW,285,7.0,11.0,28,0.00,,CLR,0.00,VWS V14.01,2013-05-12 20:30:00,
2013-05-12 15:35:00,56.6,23.0,30.13,NW,311,2.0,14.0,27,0.00,,CLR,0.00,VWS V14.01,2013-05-12 20:35:00,
2013-05-12 15:40:00,56.6,23.9,30.13,NNW,340,6.0,14.0,28,0.00,,CLR,0.00,VWS V14.01,2013-05-12 20:40:00,
2013-05-12 15:45:00,56.5,22.9,30.13,NNW,344,5.0,14.0,27,0.00,,CLR,0.00,VWS V14.01,2013-05-12 20:45:00,
2013-05-12 15:50:00,56.7,23.1,30.13,North,360,7.0,14.0,27,0.00,,CLR,0.00,VWS V14.01,2013-05-12 20:50:00,
2013-05-12 15:55:00,56.9,24.1,30.13,NW,305,7.0,14.0,28,0.00,,CLR,0.00,VWS V14.01,2013-05-12 20:55:00,
2013-05-12 16:00:00,57.2,23.5,30.13,NW,323,7.0,14.0,27,0.00,,CLR,0.00,VWS V14.01,2013-05-12 21:00:00,
2013-05-12 16:05:00,56.9,21.5,30.12,NW,305,5.0,10.0,25,0.00,,CLR,0.00,VWS V14.01,2013-05-12 21:05:00,
2013-05-12 16:10:00,57.2,26.1,30.12,NNE,20,3.0,10.0,30,0.00,,CLR,0.00,VWS V14.01,2013-05-12 21:10:00,
2013-05-12 16:15:00,57.2,25.2,30.12,NNW,348,6.0,10.0,29,0.00,,CLR,0.00,VWS V14.01,2013-05-12 21:15:00,
2013-05-12 16:20:00,57.5,24.7,30.12,NNW,339,4.0,10.0,28,0.00,,CLR,0.00,VWS V14.01,2013-05-12 21:20:00,
2013-05-12 16:25:00,57.4,22.8,30.12,WNW,295,5.0,10.0,26,0.00,,CLR,0.00,VWS V14.01,2013-05-12 21:25:00,
2013-05-12 16:30:00,57.5,22.9,30.12,North,9,3.0,10.0,26,0.00,,CLR,0.00,VWS V14.01,2013-05-12 21:30:00,
2013-05-12 16:35:00,57.9,24.1,30.11,North,5,4.0,5.0,27,0.00,,CLR,0.00,VWS V14.01,2013-05-12 21:35:00,
2013-05-12 16:40:00,57.7,23.1,30.11,NNW,334,1.0,11.0,26,0.00,,CLR,0.00,VWS V14.01,2013-05-12 21:40:00,
2013-05-12 16:45:00,58.0,24.2,30.12,NW,305,2.0,11.0,27,0.00,,CLR,0.00,VWS V14.01,2013-05-12 21:45:00,
2013-05-12 16:50:00,58.2,23.5,30.11,North,11,4.0,11.0,26,0.00,,CLR,0.00,VWS V14.01,2013-05-12 21:50:00,
2013-05-12 16:55:00,58.1,21.5,30.11,WNW,302,3.0,11.0,24,0.00,,CLR,0.00,VWS V14.01,2013-05-12 21:55:00,
2013-05-12 17:00:00,58.2,21.6,30.11,NW,319,4.0,11.0,24,0.00,,CLR,0.00,VWS V14.01,2013-05-12 22:00:00,
2013-05-12 17:05:00,58.4,23.7,30.11,NW,315,4.0,8.0,26,0.00,,CLR,0.00,VWS V14.01,2013-05-12 22:05:00,
2013-05-12 17:10:00,58.2,21.6,30.11,North,356,2.0,8.0,24,0.00,,CLR,0.00,VWS V14.01,2013-05-12 22:10:00,
2013-05-12 17:15:00,58.1,23.4,30.11,NW,325,2.0,8.0,26,0.00,,CLR,0.00,VWS V14.01,2013-05-12 22:15:00,
2013-05-12 17:20:00,58.4,23.7,30.11,WNW,302,3.0,8.0,26,0.00,,CLR,0.00,VWS V14.01,2013-05-12 22:20:00,
2013-05-12 17:25:00,58.6,23.8,30.11,NW,311,2.0,9.0,26,0.00,,CLR,0.00,VWS V14.01,2013-05-12 22:25:00,
2013-05-12 17:30:00,58.6,23.8,30.11,NW,325,2.0,9.0,26,0.00,,CLR,0.00,VWS V14.01,2013-05-12 22:30:00,
2013-05-12 17:35:00,58.8,22.1,30.10,NW,314,5.0,7.0,24,0.00,,CLR,0.00,VWS V14.01,2013-05-12 22:35:00,
2013-05-12 17:40:00,58.7,23.0,30.10,WNW,294,3.0,7.0,25,0.00,,CLR,0.00,VWS V14.01,2013-05-12 22:40:00,
2013-05-12 17:45:00,58.6,24.8,30.10,NNE,27,5.0,7.0,27,0.00,,CLR,0.00,VWS V14.01,2013-05-12 22:45:00,
2013-05-12 17:50:00,58.8,22.1,30.10,NNW,329,3.0,7.0,24,0.00,,CLR,0.00,VWS V14.01,2013-05-12 22:50:00,
2013-05-12 17:55:00,58.8,24.9,30.10,NW,311,2.0,7.0,27,0.00,,CLR,0.00,VWS V14.01,2013-05-12 22:55:00,
2013-05-12 18:00:00,58.9,20.1,30.10,NW,315,1.0,7.0,22,0.00,,CLR,0.00,VWS V14.01,2013-05-12 23:00:00,
2013-05-12 18:05:00,58.9,23.2,30.10,NNW,340,0.0,9.0,25,0.00,,CLR,0.00,VWS V14.01,2013-05-12 23:05:00,
2013-05-12 18:10:00,58.9,23.2,30.10,NNW,330,2.0,9.0,25,0.00,,CLR,0.00,VWS V14.01,2013-05-12 23:10:00,
2013-05-12 18:15:00,58.8,20.1,30.09,NNE,25,3.0,9.0,22,0.00,,CLR,0.00,VWS V14.01,2013-05-12 23:15:00,
2013-05-12 18:20:00,58.8,23.1,30.09,WNW,301,5.0,9.0,25,0.00,,CLR,0.00,VWS V14.01,2013-05-12 23:20:00,
2013-05-12 18:25:00,58.8,22.1,30.09,NW,305,3.0,9.0,24,0.00,,CLR,0.00,VWS V14.01,2013-05-12 23:25:00,
2013-05-12 18:30:00,58.6,21.9,30.09,NW,316,3.0,9.0,24,0.00,,CLR,0.00,VWS V14.01,2013-05-12 23:30:00,
2013-05-12 18:35:00,58.7,21.0,30.09,WNW,296,2.0,7.0,23,0.00,,CLR,0.00,VWS V14.01,2013-05-12 23:35:00,
2013-05-12 18:40:00,58.7,23.0,30.09,NNE,13,1.0,7.0,25,0.00,,CLR,0.00,VWS V14.01,2013-05-12 23:40:00,
2013-05-12 18:45:00,58.7,21.0,30.09,NW,315,2.0,7.0,23,0.00,,CLR,0.00,VWS V14.01,2013-05-12 23:45:00,
2013-05-12 18:50:00,58.6,21.9,30.09,NW,325,4.0,7.0,24,0.00,,CLR,0.00,VWS V14.01,2013-05-12 23:50:00,
2013-05-12 18:55:00,58.6,21.9,30.09,NW,324,2.0,7.0,24,0.00,,CLR,0.00,VWS V14.01,2013-05-12 23:55:00,
2013-05-12 19:00:00,58.5,20.9,30.09,NW,305,2.0,7.0,23,0.00,,CLR,0.00,VWS V14.01,2013-05-13 00:00:00,
2013-05-12 19:05:00,58.2,21.6,30.09,NW,321,2.0,5.0,24,0.00,,CLR,0.00,VWS V14.01,2013-05-13 00:05:00,
2013-05-12 19:10:00,58.2,20.6,30.09,NNW,330,0.0,6.0,23,0.00,,CLR,0.00,VWS V14.01,2013-05-13 00:10:00,
2013-05-12 19:15:00,58.2,22.6,30.09,NNW,342,3.0,6.0,25,0.00,,CLR,0.00,VWS V14.01,2013-05-13 00:15:00,
2013-05-12 19:20:00,58.1,20.5,30.08,NNE,21,2.0,6.0,23,0.00,,CLR,0.00,VWS V14.01,2013-05-13 00:20:00,
2013-05-12 19:25:00,57.9,23.2,30.08,North,352,2.0,6.0,26,0.00,,CLR,0.00,VWS V14.01,2013-05-13 00:25:00,
2013-05-12 19:30:00,57.6,21.1,30.08,NW,319,1.0,6.0,24,0.00,,CLR,0.00,VWS V14.01,2013-05-13 00:30:00,
2013-05-12 19:35:00,57.4,21.9,30.09,North,351,2.0,3.0,25,0.00,,CLR,0.00,VWS V14.01,2013-05-13 00:35:00,
2013-05-12 19:40:00,57.0,21.5,30.08,North,9,5.0,7.0,25,0.00,,CLR,0.00,VWS V14.01,2013-05-13 00:40:00,
2013-05-12 19:45:00,56.7,22.2,30.08,NNW,335,1.0,7.0,26,0.00,,CLR,0.00,VWS V14.01,2013-05-13 00:45:00,
2013-05-12 19:50:00,56.5,21.1,30.08,NNE,19,2.0,7.0,25,0.00,,CLR,0.00,VWS V14.01,2013-05-13 00:50:00,
2013-05-12 19:55:00,56.3,21.9,30.08,North,349,2.0,7.0,26,0.00,,CLR,0.00,VWS V14.01,2013-05-13 00:55:00,
2013-05-12 20:00:00,56.0,21.6,30.08,North,354,5.0,7.0,26,0.00,,CLR,0.00,VWS V14.01,2013-05-13 01:00:00,
2013-05-12 20:05:00,55.7,23.1,30.09,North,356,1.0,4.0,28,0.00,,CLR,0.00,VWS V14.01,2013-05-13 01:05:00,
2013-05-12 20:10:00,55.3,23.6,30.09,North,356,3.0,4.0,29,0.00,,CLR,0.00,VWS V14.01,2013-05-13 01:10:00,
2013-05-12 20:15:00,55.0,23.4,30.09,North,354,2.0,5.0,29,0.00,,CLR,0.00,VWS V14.01,2013-05-13 01:15:00,
2013-05-12 20:20:00,54.7,23.1,30.09,North,349,1.0,5.0,29,0.00,,CLR,0.00,VWS V14.01,2013-05-13 01:20:00,
2013-05-12 20:25:00,54.4,23.6,30.09,NNE,16,3.0,5.0,30,0.00,,CLR,0.00,VWS V14.01,2013-05-13 01:25:00,
2013-05-12 20:30:00,54.1,23.4,30.09,North,351,1.0,5.0,30,0.00,,CLR,0.00,VWS V14.01,2013-05-13 01:30:00,
2013-05-12 20:35:00,53.9,24.0,30.09,North,356,1.0,3.0,31,0.00,,CLR,0.00,VWS V14.01,2013-05-13 01:35:00,
2013-05-12 20:40:00,53.7,24.6,30.09,North,356,0.0,3.0,32,0.00,,CLR,0.00,VWS V14.01,2013-05-13 01:40:00,
2013-05-12 20:45:00,53.4,23.5,30.09,NW,325,0.0,3.0,31,0.00,,CLR,0.00,VWS V14.01,2013-05-13 01:45:00,
2013-05-12 20:50:00,53.2,23.4,30.09,North,11,0.0,3.0,31,0.00,,CLR,0.00,VWS V14.01,2013-05-13 01:50:00,
2013-05-12 20:55:00,52.8,23.8,30.10,North,11,0.0,3.0,32,0.00,,CLR,0.00,VWS V14.01,2013-05-13 01:55:00,
2013-05-12 21:00:00,52.4,24.2,30.10,North,11,0.0,3.0,33,0.00,,CLR,0.00,VWS V14.01,2013-05-13 02:00:00,
2013-05-12 21:05:00,52.2,24.0,30.10,North,6,0.0,0.0,33,0.00,,CLR,0.00,VWS V14.01,2013-05-13 02:05:00,
2013-05-12 21:10:00,52.0,24.5,30.10,North,6,0.0,1.0,34,0.00,,CLR,0.00,VWS V14.01,2013-05-13 02:10:00,
2013-05-12 21:15:00,51.8,24.3,30.10,North,6,0.0,1.0,34,0.00,,CLR,0.00,VWS V14.01,2013-05-13 02:15:00,
2013-05-12 21:20:00,51.6,24.2,30.10,North,1,0.0,1.0,34,0.00,,CLR,0.00,VWS V14.01,2013-05-13 02:20:00,
2013-05-12 21:25:00,51.3,25.3,30.10,North,1,0.0,1.0,36,0.00,,CLR,0.00,VWS V14.01,2013-05-13 02:25:00,
2013-05-12 21:30:00,51.1,27.0,30.10,North,1,0.0,1.0,39,0.00,,CLR,0.00,VWS V14.01,2013-05-13 02:30:00,
2013-05-12 21:35:00,51.0,27.5,30.10,North,1,0.0,0.0,40,0.00,,CLR,0.00,VWS V14.01,2013-05-13 02:35:00,
2013-05-12 21:40:00,50.5,27.7,30.10,North,1,0.0,0.0,41,0.00,,CLR,0.00,VWS V14.01,2013-05-13 02:40:00,
2013-05-12 21:45:00,50.4,28.8,30.10,North,1,0.0,0.0,43,0.00,,CLR,0.00,VWS V14.01,2013-05-13 02:45:00,
2013-05-12 21:50:00,50.1,29.6,30.10,North,1,0.0,0.0,45,0.00,,CLR,0.00,VWS V14.01,2013-05-13 02:50:00,
2013-05-12 21:54:00,50.0,28.4,30.11,North,1,0.0,0.0,43,0.00,,CLR,0.00,VWS V14.01,2013-05-13 02:54:00,
2013-05-12 21:59:00,49.9,28.3,30.11,WNW,295,0.0,1.0,43,0.00,,CLR,0.00,VWS V14.01,2013-05-13 02:59:00,
2013-05-12 22:04:00,49.8,28.2,30.11,West,277,0.0,1.0,43,0.00,,CLR,0.00,VWS V14.01,2013-05-13 03:04:00,
2013-05-12 22:09:00,49.8,28.2,30.11,West,277,0.0,1.0,43,0.00,,CLR,0.00,VWS V14.01,2013-05-13 03:09:00,
2013-05-12 22:14:00,49.5,28.0,30.11,West,277,0.0,1.0,43,0.00,,CLR,0.00,VWS V14.01,2013-05-13 03:14:00,
2013-05-12 22:19:00,49.1,27.0,30.11,West,277,0.0,1.0,42,0.00,,CLR,0.00,VWS V14.01,2013-05-13 03:19:00,
2013-05-12 22:24:00,48.9,26.8,30.11,West,277,0.0,1.0,42,0.00,,CLR,0.00,VWS V14.01,2013-05-13 03:24:00,
2013-05-12 22:29:00,49.0,27.5,30.11,West,277,0.0,1.0,43,0.00,,CLR,0.00,VWS V14.01,2013-05-13 03:29:00,
2013-05-12 22:34:00,49.1,27.6,30.11,West,277,0.0,0.0,43,0.00,,CLR,0.00,VWS V14.01,2013-05-13 03:34:00,
2013-05-12 22:39:00,49.0,26.9,30.11,West,277,0.0,0.0,42,0.00,,CLR,0.00,VWS V14.01,2013-05-13 03:39:00,
2013-05-12 22:44:00,48.9,25.7,30.11,West,277,0.0,0.0,40,0.00,,CLR,0.00,VWS V14.01,2013-05-13 03:44:00,
2013-05-12 22:49:00,48.8,25.6,30.11,West,277,0.0,0.0,40,0.00,,CLR,0.00,VWS V14.01,2013-05-13 03:49:00,
2013-05-12 22:54:00,48.4,25.2,30.11,West,277,0.0,0.0,40,0.00,,CLR,0.00,VWS V14.01,2013-05-13 03:54:00,
2013-05-12 22:59:00,48.5,24.7,30.10,West,277,0.0,0.0,39,0.00,,CLR,0.00,VWS V14.01,2013-05-13 03:59:00,
2013-05-12 23:01:00,48.5,24.7,30.10,West,277,0.0,0.0,39,0.00,,CLR,0.00,VWS V14.01,2013-05-13 04:01:00,
2013-05-12 23:06:00,48.7,24.9,30.10,West,277,0.0,0.0,39,0.00,,CLR,0.00,VWS V14.01,2013-05-13 04:06:00,
2013-05-12 23:11:00,48.7,24.9,30.10,West,277,0.0,0.0,39,0.00,,CLR,0.00,VWS V14.01,2013-05-13 04:11:00,
2013-05-12 23:16:00,48.7,24.2,30.10,West,277,0.0,1.0,38,0.00,,CLR,0.00,VWS V14.01,2013-05-13 04:16:00,
2013-05-12 23:21:00,48.7,24.9,30.10,West,277,0.0,1.0,39,0.00,,CLR,0.00,VWS V14.01,2013-05-13 04:21:00,
2013-05-12 23:26:00,48.4,24.6,30.10,West,277,0.0,1.0,39,0.00,,CLR,0.00,VWS V14.01,2013-05-13 04:26:00,
2013-05-12 23:31:00,48.1,24.9,30.10,West,277,0.0,0.0,40,0.00,,CLR,0.00,VWS V14.01,2013-05-13 04:31:00,
2013-05-12 23:36:00,47.4,25.5,30.10,West,277,0.0,0.0,42,0.00,,CLR,0.00,VWS V14.01,2013-05-13 04:36:00,
2013-05-12 23:41:00,46.8,25.5,30.10,West,277,0.0,1.0,43,0.00,,CLR,0.00,VWS V14.01,2013-05-13 04:41:00,
2013-05-12 23:46:00,46.6,25.9,30.10,West,277,0.0,1.0,44,0.00,,CLR,0.00,VWS V14.01,2013-05-13 04:46:00,
2013-05-12 23:51:00,46.4,24.6,30.10,West,278,0.0,1.0,42,0.00,,CLR,0.00,VWS V14.01,2013-05-13 04:51:00,
2013-05-12 23:56:00,45.7,29.1,30.10,North,357,0.0,4.0,52,0.00,,CLR,0.00,VWS V14.01,2013-05-13 04:56:00,